EW3645 Weather Reports


Display with metric or nautical units.
time (UTC)temp
F
wind
direction
speed
MPH
gust
MPH
rain 1hr
in
rain 24hr
in
rain mn
in
humidity
%
barometer
mb
20191211105024 30 109 2.0 6.0 0.00 0.00 0.00 100 1017.8
20191211104507 29 133 2.0 6.0 0.00 0.00 0.00 100 1017.8
20191211104008 29 133 1.0 6.0 0.00 0.00 0.00 100 1018.0
20191211103508 29 102 1.0 6.0 0.00 0.00 0.00 100 1018.0
20191211102506 29 149 2.0 6.0 0.00 0.00 0.00 100 1018.1
20191211101006 28 124 2.0 6.0 0.00 0.00 0.00 100 1018.3
20191211100506 28 147 2.0 6.0 0.00 0.00 0.00 100 1018.4
20191211100007 27 137 2.0 7.0 0.00 0.00 0.00 100 1018.5
20191211095506 27 127 1.0 7.0 0.00 0.00 0.00 100 1018.6
20191211095006 27 143 2.0 6.0 0.00 0.00 0.00 100 1018.7
20191211094506 27 121 2.0 6.0 0.00 0.00 0.00 100 1018.8
20191211093506 26 133 2.0 6.0 0.00 0.00 0.00 88 1019.1
20191211093007 26 106 1.0 6.0 0.00 0.00 0.00 82 1019.1
20191211092506 26 133 1.0 6.0 0.00 0.00 0.00 82 1019.2
20191211091513 25 134 1.0 5.0 0.00 0.00 0.00 74 1019.5
20191211091007 25 140 1.0 5.0 0.00 0.00 0.00 66 1019.6
20191211090507 24 131 1.0 6.0 0.00 0.00 0.00 66 1019.6
20191211090006 24 123 2.0 5.0 0.00 0.00 0.00 66 1019.6
20191211085506 24 135 1.0 6.0 0.00 0.00 0.00 64 1019.6
20191211085007 24 131 2.0 6.0 0.00 0.00 0.00 59 1019.7
20191211084007 23 194 2.0 5.0 0.00 0.00 0.00 55 1019.8
20191211083506 23 57 1.0 5.0 0.00 0.00 0.00 58 1019.9
20191211082006 22 154 1.0 5.0 0.00 0.00 0.00 58 1020.0
20191211081506 22 270 2.0 5.0 0.00 0.00 0.00 58 1020.0
20191211081007 23 110 0.0 5.0 0.00 0.00 0.00 57 1020.1
20191211080506 22 177 1.0 5.0 0.00 0.00 0.00 52 1020.2
20191211080006 22 201 1.0 5.0 0.00 0.00 0.00 53 1020.3
20191211075506 22 205 2.0 5.0 0.00 0.00 0.00 50 1020.3
20191211075006 22 181 2.0 6.0 0.00 0.00 0.00 52 1020.4
20191211074506 22 213 1.0 5.0 0.00 0.00 0.00 51 1020.4
20191211074006 22 277 2.0 5.0 0.00 0.00 0.00 50 1020.3
20191211073506 22 287 2.0 6.0 0.00 0.00 0.00 52 1020.3
20191211073006 22 285 0.0 6.0 0.00 0.00 0.00 49 1020.4
20191211072506 21 239 2.0 6.0 0.00 0.00 0.00 46 1020.4
20191211071506 21 70 0.0 5.0 0.00 0.00 0.00 52 1020.5
20191211071007 21 218 1.0 6.0 0.00 0.00 0.00 51 1020.4
20191211070006 21 67 2.0 6.0 0.00 0.00 0.00 54 1020.6
20191211065007 22 88 0.0 5.0 0.00 0.00 0.00 53 1020.6
20191211064506 21 87 2.0 6.0 0.00 0.00 0.00 55 1020.6
20191211064006 21 1 2.0 6.0 0.00 0.00 0.00 55 1020.5
20191211063506 21 25 0.0 3.0 0.00 0.00 0.00 57 1020.6
20191211063007 21 309 1.0 5.0 0.00 0.00 0.00 57 1020.7
20191211062506 21 315 0.0 1.0 0.00 0.00 0.00 55 1020.8
20191211061506 21 109 1.0 5.0 0.00 0.00 0.00 56 1020.9
20191211061006 21 131 2.0 5.0 0.00 0.00 0.00 56 1020.7
20191211060506 21 54 1.0 6.0 0.00 0.00 0.00 55 1020.7
20191211051506 22 292 0.0 0.0 0.00 0.00 0.00 61 1021.1
20191211050006 22 292 0.0 1.0 0.00 0.00 0.00 61 1021.2
20191211045506 22 292 0.0 0.0 0.00 0.00 0.00 63 1021.1
20191211045007 22 90 0.0 5.0 0.00 0.00 0.00 59 1021.2
20191211044633 22 150 0.0 5.0 0.00 0.00 0.00 62 1021.3
20191211044009 22 194 2.0 5.0 0.00 0.00 0.00 61 1021.3
20191211043506 22 197 2.0 5.0 0.00 0.00 0.00 62 1021.4
20191211043007 22 230 2.0 5.0 0.00 0.00 0.00 60 1021.4
20191211042506 23 292 1.0 6.0 0.00 0.00 0.00 71 1021.5
20191211041506 23 337 1.0 5.0 0.00 0.00 0.00 71 1021.5
20191211041006 23 204 2.0 5.0 0.00 0.00 0.00 76 1021.5
20191211040506 23 111 2.0 5.0 0.00 0.00 0.00 74 1021.5
20191211040006 24 185 1.0 5.0 0.00 0.00 0.00 77 1021.5
20191211035506 24 64 1.0 5.0 0.00 0.00 0.00 76 1021.6
20191211035006 24 51 0.0 5.0 0.00 0.00 0.00 74 1021.6
20191211034506 24 97 2.0 6.0 0.00 0.00 0.00 75 1021.6
20191211034007 24 11 1.0 6.0 0.00 0.00 0.00 76 1021.7
20191211033506 24 67 2.0 6.0 0.00 0.00 0.00 74 1021.7
20191211033006 24 78 1.0 6.0 0.00 0.00 0.00 76 1021.7
20191211032506 24 72 2.0 6.0 0.00 0.00 0.00 75 1021.6
20191211032007 24 55 1.0 5.0 0.00 0.00 0.00 72 1021.7
20191211031507 24 263 0.0 5.0 0.00 0.00 0.00 71 1021.7
20191211031007 24 224 2.0 5.0 0.00 0.00 0.00 73 1021.8
20191211030506 24 204 2.0 6.0 0.00 0.00 0.00 69 1021.9
20191211030006 24 225 1.0 5.0 0.00 0.00 0.00 70 1022.0
20191211025506 24 208 2.0 5.0 0.00 0.00 0.00 75 1022.1
20191211025006 24 94 0.0 3.0 0.00 0.00 0.00 76 1022.1
20191211024007 24 157 2.0 5.0 0.00 0.00 0.00 84 1022.1
20191211023507 25 339 2.0 5.0 0.00 0.00 0.00 86 1022.1
20191211023007 25 225 0.0 5.0 0.00 0.00 0.00 88 1022.2
20191211022506 25 269 1.0 5.0 0.00 0.00 0.00 93 1022.4
20191211022007 25 25 1.0 5.0 0.00 0.00 0.00 90 1022.3
20191211021506 25 224 1.0 6.0 0.00 0.00 0.00 86 1022.2
20191211021006 25 323 1.0 5.0 0.00 0.00 0.00 85 1022.3
20191211020506 26 41 1.0 5.0 0.00 0.00 0.00 83 1022.3
20191211020006 25 90 1.0 5.0 0.00 0.00 0.00 86 1022.4
20191211015506 26 77 0.0 5.0 0.00 0.00 0.00 90 1022.4
20191211015006 26 45 2.0 6.0 0.00 0.00 0.00 94 1022.5
20191211014506 26 92 2.0 6.0 0.00 0.00 0.00 95 1022.6
20191211014006 26 99 1.0 5.0 0.00 0.00 0.00 91 1022.7
20191211013506 26 292 2.0 6.0 0.00 0.00 0.00 97 1022.7
20191211012506 26 250 2.0 5.0 0.00 0.00 0.00 94 1022.8
20191211012007 26 169 0.0 5.0 0.00 0.00 0.00 100 1022.9
20191211011506 26 76 1.0 6.0 0.00 0.00 0.00 100 1022.9
20191211011006 27 74 2.0 6.0 0.00 0.00 0.00 100 1023.0
20191211010506 27 55 1.0 6.0 0.00 0.00 0.00 100 1023.0
20191211010006 27 104 1.0 6.0 0.00 0.00 0.00 97 1023.0
20191211005506 27 119 1.0 6.0 0.00 0.00 0.00 99 1022.8
20191211005007 26 294 2.0 6.0 0.00 0.00 0.00 94 1022.8
20191211004507 26 315 2.0 6.0 0.00 0.00 0.00 96 1023.0
20191211004007 26 335 1.0 5.0 0.00 0.00 0.00 93 1023.0
20191211003006 27 62 1.0 5.0 0.00 0.00 0.00 100 1023.0
20191211002506 27 76 1.0 5.0 0.00 0.00 0.00 100 1023.0
20191211002006 27 90 1.0 6.0 0.00 0.00 0.00 100 1022.9
20191211001506 27 131 2.0 6.0 0.00 0.00 0.00 89 1023.0
20191211001007 27 127 0.0 6.0 0.00 0.00 0.00 92 1022.9
20191211000506 27 63 1.0 6.0 0.00 0.00 0.00 95 1022.9
20191211000005 27 77 2.0 6.0 0.00 0.00 0.00 100 1023.0
20191210235506 28 79 2.0 7.0 0.00 0.00 0.00 100 1023.0
20191210235006 28 50 1.0 7.0 0.00 0.00 0.00 100 1023.0
20191210234506 28 74 2.0 7.0 0.00 0.00 0.00 100 1023.1
20191210234006 28 80 2.0 7.0 0.00 0.00 0.00 100 1023.1
20191210233506 28 97 3.0 7.0 0.00 0.00 0.00 100 1023.1
20191210233007 28 50 2.0 6.0 0.00 0.00 0.00 100 1023.3
20191210232506 28 50 2.0 6.0 0.00 0.00 0.00 100 1023.2
20191210232006 29 72 2.0 6.0 0.00 0.00 0.00 100 1023.2
20191210231506 28 88 1.0 6.0 0.00 0.00 0.00 100 1023.1
20191210231006 28 68 2.0 7.0 0.00 0.00 0.00 100 1023.3
20191210230506 29 17 2.0 7.0 0.00 0.00 0.00 100 1023.3
20191210225506 29 62 2.0 9.0 0.00 0.00 0.00 100 1023.4
20191210224507 29 93 2.0 8.0 0.00 0.00 0.00 100 1023.5
20191210224007 29 67 3.0 10.0 0.00 0.00 0.00 100 1023.5
20191210223007 29 74 3.0 9.0 0.00 0.00 0.00 100 1023.6
20191210222506 29 73 4.0 9.0 0.00 0.00 0.00 100 1023.6
20191210222006 30 34 3.0 10.0 0.00 0.00 0.00 100 1023.8
20191210221506 30 64 4.0 10.0 0.00 0.00 0.00 100 1023.8
20191210220505 30 90 3.0 10.0 0.00 0.00 0.00 100 1023.8
20191210215505 30 75 5.0 10.0 0.00 0.00 0.00 100 1023.7
20191210215007 30 66 2.0 9.0 0.00 0.00 0.00 100 1023.6
20191210214007 31 64 3.0 9.0 0.00 0.00 0.00 100 1023.8
20191210213506 31 72 3.0 9.0 0.00 0.00 0.00 100 1023.8
20191210213006 31 89 3.0 10.0 0.00 0.00 0.00 100 1023.8
20191210212505 31 73 4.0 10.0 0.00 0.00 0.00 100 1023.8
20191210212007 31 80 4.0 10.0 0.00 0.00 0.00 100 1023.8
20191210211506 31 54 3.0 9.0 0.00 0.00 0.00 100 1023.8
20191210211006 30 73 3.0 12.0 0.00 0.00 0.00 100 1023.7
20191210210505 30 62 3.0 12.0 0.00 0.00 0.00 100 1023.8
20191210210006 30 82 5.0 12.0 0.00 0.00 0.00 100 1023.7
20191210205506 31 88 3.0 10.0 0.00 0.00 0.00 100 1023.7
20191210205006 31 68 4.0 12.0 0.00 0.00 0.00 100 1023.8
20191210204506 32 81 5.0 10.0 0.00 0.00 0.00 100 1023.7
20191210204006 33 86 3.0 10.0 0.00 0.00 0.00 100 1023.8
20191210203506 33 78 5.0 12.0 0.00 0.00 0.00 100 1023.8
20191210203006 33 69 3.0 10.0 0.00 0.00 0.00 100 1023.7
20191210202007 33 104 3.0 9.0 0.00 0.00 0.00 100 1023.8
20191210201505 34 50 3.0 10.0 0.00 0.00 0.00 100 1023.9
20191210201006 34 50 4.0 10.0 0.00 0.00 0.00 100 1023.9
20191210200506 34 97 5.0 12.0 0.00 0.00 0.00 100 1023.8
20191210200007 35 50 4.0 13.0 0.00 0.00 0.00 99 1023.8
20191210195505 35 52 5.0 13.0 0.00 0.00 0.00 97 1023.6
20191210195006 35 68 5.0 13.0 0.00 0.00 0.00 97 1023.8
20191210194506 35 58 4.0 14.0 0.00 0.00 0.00 96 1023.7
20191210193506 35 42 2.0 12.0 0.00 0.00 0.00 98 1023.7
20191210193007 36 109 3.0 12.0 0.00 0.00 0.00 96 1023.7
20191210192505 36 17 3.0 12.0 0.00 0.00 0.00 98 1023.7
20191210192006 36 69 5.0 12.0 0.00 0.00 0.00 95 1023.6
20191210191506 36 76 4.0 12.0 0.00 0.00 0.00 96 1023.5
20191210191007 36 54 5.0 13.0 0.00 0.00 0.00 94 1023.5
20191210190506 36 74 3.0 12.0 0.00 0.00 0.00 100 1023.4
20191210190006 36 89 5.0 12.0 0.00 0.00 0.00 100 1023.4
20191210185506 36 75 6.0 13.0 0.00 0.00 0.00 100 1023.3
20191210185006 36 75 5.0 10.0 0.00 0.00 0.00 100 1023.4
20191210184506 36 81 3.0 10.0 0.00 0.00 0.00 100 1023.3
20191210184006 36 33 3.0 9.0 0.00 0.00 0.00 100 1023.2
20191210183505 36 101 4.0 10.0 0.00 0.00 0.00 100 1023.2
20191210183006 36 71 3.0 10.0 0.00 0.00 0.00 100 1023.1
20191210182506 36 88 5.0 12.0 0.00 0.00 0.00 100 1023.0
20191210182006 36 78 3.0 12.0 0.00 0.00 0.00 100 1023.1
20191210181505 36 73 6.0 12.0 0.00 0.00 0.00 100 1023.1
20191210181006 36 83 5.0 13.0 0.00 0.00 0.00 100 1023.0
20191210180506 36 78 7.0 12.0 0.00 0.00 0.00 100 1023.1
20191210175506 36 75 5.0 12.0 0.00 0.00 0.00 100 1023.0
20191210174506 36 76 5.0 13.0 0.00 0.00 0.00 100 1023.1
20191210174006 36 78 6.0 12.0 0.00 0.00 0.00 100 1023.0
20191210173506 36 78 7.0 13.0 0.00 0.00 0.00 100 1023.0
20191210173006 37 71 5.0 13.0 0.00 0.00 0.00 100 1023.0
20191210172007 36 74 5.0 12.0 0.00 0.00 0.00 100 1022.8
20191210171506 36 94 6.0 13.0 0.00 0.00 0.00 100 1022.7
20191210171006 36 76 6.0 13.0 0.00 0.00 0.00 100 1022.6
20191210170506 36 68 7.0 14.0 0.00 0.00 0.00 100 1022.6
20191210170006 36 81 7.0 15.0 0.00 0.00 0.00 100 1022.6
20191210165007 35 76 6.0 12.0 0.00 0.00 0.00 100 1022.6
20191210164506 35 49 5.0 13.0 0.00 0.00 0.00 100 1022.6
20191210164007 34 63 5.0 13.0 0.00 0.00 0.00 100 1022.5
20191210163506 34 86 4.0 10.0 0.00 0.00 0.00 100 1022.4
20191210162006 35 68 4.0 12.0 0.00 0.00 0.00 100 1022.4
20191210161506 35 60 3.0 12.0 0.00 0.00 0.00 100 1022.2
20191210161006 35 54 2.0 10.0 0.00 0.00 0.00 100 1022.1
20191210160506 35 93 3.0 13.0 0.00 0.00 0.00 100 1022.2
20191210160005 36 84 5.0 12.0 0.00 0.00 0.00 95 1022.2
20191210155506 36 60 3.0 10.0 0.00 0.00 0.00 93 1022.0
20191210155006 36 45 3.0 9.0 0.00 0.00 0.00 91 1022.0
20191210154505 36 68 3.0 10.0 0.00 0.00 0.00 91 1022.1
20191210154006 36 68 5.0 10.0 0.00 0.00 0.00 92 1022.0
20191210153506 36 80 5.0 10.0 0.00 0.00 0.00 92 1021.9
20191210153006 36 81 3.0 9.0 0.00 0.00 0.00 92 1021.9
20191210152505 36 94 4.0 10.0 0.00 0.00 0.00 91 1021.9
20191210152006 37 78 4.0 10.0 0.00 0.00 0.00 91 1021.8
20191210151506 37 74 5.0 12.0 0.00 0.00 0.00 90 1021.8
20191210151006 37 83 4.0 10.0 0.00 0.00 0.00 92 1021.8
20191210150505 37 73 4.0 12.0 0.00 0.00 0.00 87 1021.7
20191210150006 37 71 5.0 13.0 0.00 0.00 0.00 88 1021.7
20191210145506 37 90 3.0 12.0 0.00 0.00 0.00 92 1021.7
20191210145006 37 81 5.0 12.0 0.00 0.00 0.00 91 1021.7
20191210144505 38 84 3.0 9.0 0.00 0.00 0.00 91 1021.5
20191210144006 38 76 2.0 9.0 0.00 0.00 0.00 90 1021.4
20191210143506 38 74 3.0 10.0 0.00 0.00 0.00 88 1021.4
20191210143006 39 86 3.0 10.0 0.00 0.00 0.00 85 1021.4
20191210142506 39 66 3.0 12.0 0.00 0.00 0.00 81 1021.4
20191210142006 39 101 5.0 13.0 0.00 0.00 0.00 80 1021.2
20191210141506 40 313 5.0 13.0 0.00 0.00 0.00 82 1021.2
20191210141006 40 286 5.0 16.0 0.00 0.00 0.00 79 1021.2
20191210140505 39 145 2.0 10.0 0.00 0.00 0.00 83 1021.1
20191210140006 40 265 5.0 12.0 0.00 0.00 0.00 82 1021.1
20191210135506 40 281 4.0 12.0 0.00 0.00 0.00 84 1021.0
20191210135007 40 39 3.0 10.0 0.00 0.00 0.00 83 1020.9
20191210134506 40 249 3.0 12.0 0.00 0.00 0.00 84 1021.0
20191210134006 40 223 5.0 13.0 0.00 0.00 0.00 82 1020.9
20191210133505 40 289 6.0 12.0 0.00 0.00 0.00 81 1020.9
20191210133006 40 124 6.0 14.0 0.00 0.00 0.00 80 1020.7
20191210132505 40 60 6.0 15.0 0.00 0.00 0.00 81 1020.6
20191210132006 40 18 5.0 13.0 0.00 0.00 0.00 81 1020.6
20191210131506 40 47 7.0 15.0 0.00 0.00 0.00 80 1020.6
20191210131006 40 60 6.0 15.0 0.00 0.00 0.00 85 1020.5
20191210130505 39 64 7.0 15.0 0.00 0.00 0.00 87 1020.4
20191210130005 39 71 8.0 15.0 0.00 0.00 0.00 87 1020.5
20191210125506 39 67 7.0 18.0 0.00 0.00 0.00 86 1020.4
20191210125006 39 82 8.0 16.0 0.00 0.00 0.00 90 1020.3
20191210124505 40 83 7.0 16.0 0.00 0.00 0.00 90 1020.3
20191210124006 40 74 6.0 15.0 0.00 0.00 0.00 88 1020.3
20191210123506 40 109 6.0 16.0 0.00 0.00 0.00 90 1020.3
20191210123006 40 78 6.0 16.0 0.00 0.00 0.00 94 1020.2
20191210122505 40 51 4.0 14.0 0.00 0.00 0.00 93 1020.2
20191210122006 40 49 7.0 15.0 0.00 0.00 0.00 88 1020.1
20191210121506 40 69 6.0 13.0 0.00 0.00 0.00 94 1020.0
20191210121006 40 82 3.0 14.0 0.00 0.00 0.00 94 1020.0
20191210120505 40 70 7.0 15.0 0.00 0.00 0.00 96 1019.8
20191210120006 40 58 5.0 13.0 0.00 0.00 0.00 94 1019.9
20191210115505 40 45 6.0 14.0 0.00 0.00 0.00 95 1019.9
20191210115006 40 79 6.0 14.0 0.00 0.00 0.00 99 1019.8
20191210114507 40 81 3.0 13.0 0.00 0.00 0.00 100 1019.8
20191210114006 40 72 5.0 14.0 0.00 0.00 0.00 100 1019.8
20191210113506 40 75 6.0 12.0 0.00 0.00 0.00 100 1019.7
20191210113006 40 48 7.0 14.0 0.00 0.00 0.00 100 1019.6
20191210112505 40 50 6.0 14.0 0.00 0.00 0.00 100 1019.6
20191210112006 40 44 6.0 14.0 0.00 0.00 0.00 100 1019.6
20191210111506 40 74 5.0 13.0 0.00 0.00 0.00 100 1019.4
20191210111006 40 166 5.0 15.0 0.00 0.00 0.00 100 1019.4
20191210110505 40 56 5.0 13.0 0.00 0.00 0.00 100 1019.2
20191210110006 40 55 6.0 15.0 0.00 0.00 0.00 100 1019.1
20191210105505 40 72 6.0 16.0 0.00 0.00 0.00 100 1019.1